Weather History for Wright-Patt AFB, OH

Change the Weather History Date:

Tuesday, June 10, 2014

  Actual Average Record
Temperature  
Mean Temperature 66 °F -  
Max Temperature 73 °F 76 °F 96 °F (1999)
Min Temperature 59 °F 58 °F 49 °F (2007)
Cooling Degree Days 1    
Growing Degree Days 16 (Base 50)    
Moisture  
Dew Point 63 °F    
Average Humidity 88    
Maximum Humidity 100    
Minimum Humidity 73    
Precipitation  
Precipitation 0.44 in - - ()
Sea Level Pressure  
Sea Level Pressure 29.90 in    
Wind  
Wind Speed 4 mph (East)    
Max Wind Speed 12 mph    
Max Gust Speed -    
Visibility 6 miles    
Events Fog , Rain , Thunderstorm    
Averages and records for this station are not official NWS values.
T = Trace of Precipitation, MM = Missing Value Source: NWS Daily Summary

Daily Weather History Graph

Daily Weather History Graph

Search for Another Location

Airport:

Trip Planner

Search our weather history database for the weather conditions in past years. The results will help you decide how hot, cold, wet, or windy it might be!

Date:

Astronomy

Jun. 10, 2014 Rise Set
Actual Time 6:07 AM EDT 9:04 PM EDT
Civil Twilight 5:35 AM EDT 9:36 PM EDT
Nautical Twilight 4:53 AM EDT 10:17 PM EDT
Astronomical Twilight 4:06 AM EDT 11:05 PM EDT
Moon 6:28 PM EDT (6/10) 4:12 AM EDT (6/10)
Length of Visible Light 16h 01m
Length of Day
14h 56m
Waxing Gibbous, 92% of the Moon is Illuminated
Jun 10
Waxing Gibbous
Jun 13
Full
Jun 19
Last Quarter
Jun 27
New
Jul 5
First Quarter

Hourly Weather History & Observations

Time (EDT) Temp. Dew Point Humidity Pressure Visibility Wind Dir Wind Speed Gust Speed Precip Events Conditions
12:38 AM 62.6 °F 59.0 °F 88% 29.93 in 8.0 mi Calm Calm - N/A   Clear
12:58 AM 62.4 °F 58.6 °F 87% 29.93 in 5.0 mi Calm Calm - N/A   Clear
1:08 AM 62.6 °F 59.0 °F 88% 29.93 in 2.5 mi Calm Calm - N/A   Scattered Clouds
1:18 AM 62.6 °F 59.0 °F 88% 29.93 in 6.0 mi Calm Calm - N/A   Mostly Cloudy
1:28 AM 64.4 °F 59.0 °F 83% 29.92 in 10.0 mi Calm Calm - N/A   Mostly Cloudy
1:38 AM 62.6 °F 59.0 °F 88% 29.92 in 1.8 mi SW 2.3 mph - N/A   Mostly Cloudy
1:48 AM 62.6 °F 59.0 °F 88% 29.92 in 1.0 mi Calm Calm - N/A   Mostly Cloudy
1:58 AM 62.8 °F 58.6 °F 86% 29.92 in 8.0 mi West 1.2 mph - N/A Fog Shallow Fog
2:58 AM 60.3 °F 57.9 °F 92% 29.92 in 7.0 mi NNE 2.3 mph - N/A Fog Shallow Fog
3:58 AM 59.0 °F 57.0 °F 93% 29.90 in 10.0 mi North 5.8 mph - N/A   Overcast
4:58 AM 59.7 °F 58.1 °F 94% 29.91 in 7.0 mi Calm Calm - N/A Fog Shallow Fog
5:58 AM 59.7 °F 58.1 °F 94% 29.91 in 6.0 mi NNE 4.6 mph - N/A   Mostly Cloudy
6:58 AM 60.6 °F 59.2 °F 95% 29.91 in 5.0 mi NNE 3.5 mph - 0.00 in Rain Light Rain
7:58 AM 61.3 °F 60.6 °F 97% 29.90 in 4.0 mi NNE 6.9 mph - 0.01 in Rain Light Rain
8:58 AM 62.6 °F 61.3 °F 96% 29.91 in 3.0 mi Calm Calm - 0.02 in Rain Light Rain
9:37 AM 62.6 °F 62.6 °F 100% 29.94 in 2.8 mi WSW 3.5 mph - N/A Rain Light Rain
9:58 AM 63.3 °F 62.8 °F 98% 29.94 in 2.0 mi Calm Calm - 0.02 in Rain Light Rain
10:18 AM 64.4 °F 62.6 °F 94% 29.94 in 1.5 mi SE 3.5 mph - N/A Rain Light Rain
10:28 AM 64.4 °F 62.6 °F 94% 29.94 in 1.5 mi ESE 4.6 mph - N/A Rain Light Rain
10:58 AM 64.4 °F 62.6 °F 94% 29.95 in 1.8 mi East 4.6 mph - 0.13 in Rain Light Rain
11:28 AM 64.4 °F 64.4 °F 100% 29.94 in 2.8 mi East 8.1 mph - N/A Rain Light Rain
11:38 AM - - N/A% 29.94 in 4.0 mi East 8.1 mph - N/A   Light Drizzle
11:58 AM 65.3 °F 63.7 °F 94% 29.94 in 5.0 mi East 10.4 mph - 0.04 in Rain Light Rain
12:08 PM 66.2 °F 64.4 °F 94% 29.93 in 7.0 mi East 8.1 mph - N/A Rain Light Rain
12:45 PM 68.0 °F 64.4 °F 88% 29.93 in 7.0 mi East 11.5 mph - N/A   Overcast
12:58 PM 67.8 °F 63.1 °F 85% 29.94 in 7.0 mi ESE 10.4 mph - 0.00 in   Overcast
1:18 PM 69.8 °F 62.6 °F 78% 29.93 in 10.0 mi ESE 11.5 mph - N/A   Mostly Cloudy
1:28 PM 69.8 °F 62.6 °F 78% 29.93 in 10.0 mi ESE 8.1 mph - N/A   Mostly Cloudy
1:58 PM 70.2 °F 62.2 °F 76% 29.93 in 10.0 mi ESE 9.2 mph - N/A   Overcast
2:18 PM 69.8 °F 62.6 °F 78% 29.92 in 10.0 mi ESE 11.5 mph - N/A   Overcast
2:58 PM 70.0 °F 61.9 °F 75% 29.92 in 10.0 mi SE 11.5 mph - N/A   Overcast
3:48 PM 69.8 °F 62.6 °F 78% 29.91 in 10.0 mi ESE 8.1 mph - N/A   Overcast
3:58 PM 69.8 °F 62.6 °F 78% 29.90 in 10.0 mi East 9.2 mph - N/A   Overcast
4:08 PM 69.8 °F 62.6 °F 78% 29.90 in 10.0 mi ESE 9.2 mph - N/A   Overcast
4:45 PM 73.4 °F 64.4 °F 73% 29.88 in 10.0 mi ESE 8.1 mph - N/A   Mostly Cloudy
4:58 PM 72.0 °F 64.2 °F 77% 29.89 in 10.0 mi ESE 6.9 mph - N/A   Mostly Cloudy
5:58 PM 72.3 °F 64.4 °F 76% 29.87 in 10.0 mi East 6.9 mph - N/A   Mostly Cloudy
6:58 PM 72.0 °F 65.3 °F 79% 29.86 in 10.0 mi East 5.8 mph - N/A   Overcast
7:58 PM 70.7 °F 65.7 °F 84% 29.85 in 7.0 mi ENE 4.6 mph - 0.00 in Rain Light Rain
8:14 PM 69.8 °F 66.2 °F 88% 29.85 in 7.0 mi East 4.6 mph - N/A Rain , Thunderstorm Light Rain
8:38 PM 69.8 °F 66.2 °F 88% 29.85 in 3.0 mi ENE 2.3 mph - N/A Rain , Thunderstorm Light Rain
8:51 PM 69.8 °F 66.2 °F 88% 29.85 in 3.0 mi NW 2.3 mph - N/A Rain , Thunderstorm Light Rain
8:58 PM 68.9 °F 66.7 °F 93% 29.85 in 3.0 mi Variable 1.2 mph - 0.06 in Rain , Thunderstorm Light Rain
9:29 PM 68.0 °F 66.2 °F 94% 29.85 in 2.0 mi ENE 5.8 mph - N/A Rain , Thunderstorm Light Rain
9:46 PM 68.0 °F 66.2 °F 94% 29.83 in 3.0 mi ENE 8.1 mph - N/A Rain Light Rain
9:58 PM 67.6 °F 66.6 °F 96% 29.83 in 5.0 mi ENE 8.1 mph - 0.13 in Rain Light Rain
10:08 PM 68.0 °F 66.2 °F 94% 29.83 in 5.0 mi ENE 4.6 mph - N/A Rain Light Rain
10:38 PM 66.2 °F 66.2 °F 100% 29.84 in 6.0 mi Calm Calm - N/A   Overcast
10:58 PM 67.1 °F 65.7 °F 95% 29.83 in 6.0 mi NE 2.3 mph - 0.03 in   Overcast
11:58 PM 66.2 °F 65.7 °F 98% 29.82 in 5.0 mi East 3.5 mph - N/A   Overcast